{"data":{"norad_id":63878,"epoch":"2026-09-20T21:52:39.700704Z","epoch_age_seconds":111443,"freshness":"FRESH","line1":"1 63878U 25094Q   26263.91157061  .00003810  00000+0  13687-3 0  9990","line2":"2 63878  69.9996  99.9172 0002966 261.8124  98.2715 15.29591764 76505","mean_motion":15.29591764,"eccentricity":0.0002966,"inclination_deg":69.9996,"raan_deg":99.9172,"arg_perigee_deg":261.8124,"mean_anomaly_deg":98.2715,"bstar":0.00013687,"rev_number":7650,"period_min":94.142766317876,"perigee_km":474.99851119938,"apogee_km":479.06499730441,"semimajor_km":6855.1687542519,"source":"CELESTRAK","updated_at":"2026-09-21T09:00:35.139987Z"}}